Weather History for Bullhead City, AZ

Change the Weather History Date:

Monday, October 31, 2011

  Actual Average Record
Temperature  
Mean Temperature 70 °F -  
Max Temperature 86 °F 76 °F 93 °F (2008)
Min Temperature 53 °F 56 °F 46 °F (1989)
Cooling Degree Days 4    
Growing Degree Days 20 (Base 50)    
Moisture  
Dew Point 25 °F    
Average Humidity 20    
Maximum Humidity 35    
Minimum Humidity 9    
Precipitation  
Precipitation 0.00 in - - ()
Sea Level Pressure  
Sea Level Pressure 29.97 in    
Wind  
Wind Speed 1 mph (NW)    
Max Wind Speed 8 mph    
Max Gust Speed -    
Visibility 10 miles    
Events      
Averages and records for this station are not official NWS values.
T = Trace of Precipitation, MM = Missing Value Source: NWS Daily Summary

Daily Weather History Graph

Daily Weather History Graph

Search for Another Location

Airport:

Trip Planner

Search our weather history database for the weather conditions in past years. The results will help you decide how hot, cold, wet, or windy it might be!

Date:

Astronomy

Oct. 31, 2011 Rise Set
Actual Time 6:58 AM MST 5:44 PM MST
Civil Twilight 6:32 AM MST 6:11 PM MST
Nautical Twilight 6:02 AM MST 6:40 PM MST
Astronomical Twilight 5:32 AM MST 7:10 PM MST
Moon 12:03 PM MST (10/31) 10:29 PM MST (10/31)
Length of Visible Light 11h 38m
Length of Day
10h 46m
Waxing Crescent, 31% of the Moon is Illuminated
Oct 31
Waxing Crescent
Nov 2
First Quarter
Nov 10
Full
Nov 18
Last Quarter
Nov 24
New

Hourly Weather History & Observations

Time (MST) Temp. Dew Point Humidity Pressure Visibility Wind Dir Wind Speed Gust Speed Precip Events Conditions
12:15 AM 64.4 °F 24.8 °F 22% 30.03 in 10.0 mi Calm Calm - N/A   Clear
12:35 AM 62.6 °F 23.0 °F 22% 30.03 in 10.0 mi Calm Calm - N/A   Clear
12:55 AM 64.4 °F 24.8 °F 22% 30.03 in 10.0 mi Calm Calm - N/A   Clear
1:15 AM 60.8 °F 23.0 °F 23% 30.02 in 10.0 mi Calm Calm - N/A   Clear
1:35 AM 62.6 °F 23.0 °F 22% 30.02 in 10.0 mi Calm Calm - N/A   Clear
1:55 AM 59.0 °F 23.0 °F 25% 30.02 in 10.0 mi Calm Calm - N/A   Clear
2:15 AM 60.8 °F 21.2 °F 22% 30.02 in 10.0 mi ENE 3.5 mph - N/A   Clear
2:35 AM 59.0 °F 21.2 °F 23% 30.02 in 10.0 mi ENE 4.6 mph - N/A   Clear
2:55 AM 59.0 °F 21.2 °F 23% 30.01 in 10.0 mi Calm Calm - N/A   Clear
3:15 AM 59.0 °F 21.2 °F 23% 30.01 in 10.0 mi Calm Calm - N/A   Clear
3:35 AM 57.2 °F 21.2 °F 25% 30.01 in 10.0 mi Calm Calm - N/A   Clear
3:55 AM 57.2 °F 21.2 °F 25% 30.00 in 10.0 mi Calm Calm - N/A   Clear
4:15 AM 59.0 °F 23.0 °F 25% 30.00 in 10.0 mi Calm Calm - N/A   Clear
5:15 AM 57.2 °F 23.0 °F 27% 30.01 in 10.0 mi Calm Calm - N/A   Clear
5:35 AM 55.4 °F 23.0 °F 29% 30.01 in 10.0 mi Calm Calm - N/A   Clear
5:55 AM 55.4 °F 24.8 °F 31% 30.01 in 10.0 mi Calm Calm - N/A   Clear
6:15 AM 55.4 °F 24.8 °F 31% 30.02 in 10.0 mi Calm Calm - N/A   Clear
6:35 AM 55.4 °F 23.0 °F 29% 30.02 in 10.0 mi Calm Calm - N/A   Clear
6:55 AM 53.6 °F 24.8 °F 33% 30.01 in 10.0 mi Calm Calm - N/A   Clear
7:15 AM 53.6 °F 24.8 °F 33% 30.02 in 10.0 mi Calm Calm - N/A   Clear
7:35 AM 53.6 °F 26.6 °F 35% 30.02 in 10.0 mi Calm Calm - N/A   Clear
7:55 AM 57.2 °F 26.6 °F 31% 30.03 in 10.0 mi Calm Calm - N/A   Clear
8:15 AM 57.2 °F 26.6 °F 31% 30.03 in 10.0 mi Calm Calm - N/A   Clear
8:35 AM 59.0 °F 26.6 °F 29% 30.04 in 10.0 mi Calm Calm - N/A   Clear
8:55 AM 59.0 °F 26.6 °F 29% 30.04 in 10.0 mi Calm Calm - N/A   Clear
9:15 AM 62.6 °F 26.6 °F 26% 30.05 in 10.0 mi Calm Calm - N/A   Clear
9:35 AM 62.6 °F 24.8 °F 24% 30.04 in 10.0 mi Calm Calm - N/A   Clear
9:55 AM 64.4 °F 26.6 °F 24% 30.04 in 10.0 mi Calm Calm - N/A   Clear
10:15 AM 66.2 °F 28.4 °F 24% 30.04 in 10.0 mi Calm Calm - N/A   Clear
10:35 AM 68.0 °F 28.4 °F 23% 30.04 in 10.0 mi Calm Calm - N/A   Clear
10:55 AM 69.8 °F 28.4 °F 21% 30.03 in 10.0 mi Calm Calm - N/A   Clear
11:15 AM 73.4 °F 30.2 °F 20% 30.02 in 10.0 mi Calm Calm - N/A   Clear
11:35 AM 73.4 °F 28.4 °F 19% 30.01 in 10.0 mi Calm Calm - N/A   Clear
11:55 AM 75.2 °F 28.4 °F 18% 30.00 in 10.0 mi NNW 4.6 mph - N/A   Clear
12:15 PM 77.0 °F 28.4 °F 17% 29.99 in 10.0 mi Calm Calm - N/A   Clear
12:35 PM 78.8 °F 26.6 °F 15% 29.98 in 10.0 mi West 3.5 mph - N/A   Clear
12:55 PM 80.6 °F 26.6 °F 14% 29.96 in 10.0 mi NNW 8.1 mph - N/A   Clear
1:15 PM 82.4 °F 26.6 °F 13% 29.94 in 10.0 mi NW 6.9 mph - N/A   Clear
1:35 PM 82.4 °F 26.6 °F 13% 29.93 in 10.0 mi NW 5.8 mph - N/A   Clear
1:55 PM 82.4 °F 24.8 °F 12% 29.92 in 10.0 mi Calm Calm - N/A   Clear
2:15 PM 84.2 °F 24.8 °F 11% 29.91 in 10.0 mi NNW 6.9 mph - N/A   Clear
2:35 PM 84.2 °F 24.8 °F 11% 29.91 in 10.0 mi NNW 4.6 mph - N/A   Clear
2:55 PM 84.2 °F 24.8 °F 11% 29.90 in 10.0 mi NNW 3.5 mph - N/A   Clear
3:15 PM 84.2 °F 23.0 °F 11% 29.89 in 10.0 mi NW 3.5 mph - N/A   Clear
3:35 PM 86.0 °F 23.0 °F 10% 29.89 in 10.0 mi West 4.6 mph - N/A   Clear
3:55 PM 86.0 °F 23.0 °F 10% 29.88 in 10.0 mi WNW 3.5 mph - N/A   Clear
4:15 PM 86.0 °F 23.0 °F 10% 29.88 in 10.0 mi Calm Calm - N/A   Clear
4:35 PM 86.0 °F 21.2 °F 9% 29.88 in 10.0 mi WSW 4.6 mph - N/A   Clear
4:55 PM 86.0 °F 23.0 °F 10% 29.87 in 10.0 mi WSW 3.5 mph - N/A   Clear
5:15 PM 84.2 °F 24.8 °F 11% 29.87 in 10.0 mi WSW 3.5 mph - N/A   Clear
5:35 PM 84.2 °F 24.8 °F 11% 29.87 in 10.0 mi Calm Calm - N/A   Clear
5:55 PM 80.6 °F 26.6 °F 14% 29.87 in 10.0 mi Calm Calm - N/A   Clear
6:15 PM 75.2 °F 26.6 °F 17% 29.88 in 10.0 mi Calm Calm - N/A   Clear
6:35 PM 77.0 °F 26.6 °F 16% 29.88 in 10.0 mi ESE 5.8 mph - N/A   Clear
7:15 PM 73.4 °F 24.8 °F 16% 29.88 in 10.0 mi Calm Calm - N/A   Clear
7:35 PM 71.6 °F 24.8 °F 17% 29.88 in 10.0 mi Calm Calm - N/A   Clear
7:55 PM 71.6 °F 26.6 °F 19% 29.88 in 10.0 mi Calm Calm - N/A   Clear
8:15 PM 71.6 °F 24.8 °F 17% 29.88 in 10.0 mi Calm Calm - N/A   Clear
8:35 PM 71.6 °F 24.8 °F 17% 29.88 in 10.0 mi Calm Calm - N/A   Clear
8:55 PM 69.8 °F 24.8 °F 18% 29.89 in 10.0 mi Calm Calm - N/A   Clear
9:15 PM 69.8 °F 24.8 °F 18% 29.89 in 10.0 mi Calm Calm - N/A   Clear
9:35 PM 69.8 °F 24.8 °F 18% 29.89 in 10.0 mi Calm Calm - N/A   Clear
9:55 PM 68.0 °F 24.8 °F 20% 29.89 in 10.0 mi Calm Calm - N/A   Clear
10:15 PM 68.0 °F 24.8 °F 20% 29.89 in 10.0 mi Calm Calm - N/A   Clear
10:35 PM 68.0 °F 24.8 °F 20% 29.88 in 10.0 mi Calm Calm - N/A   Clear
10:55 PM 64.4 °F 24.8 °F 22% 29.89 in 10.0 mi Calm Calm - N/A   Clear
11:15 PM 64.4 °F 23.0 °F 21% 29.88 in 10.0 mi Calm Calm - N/A   Clear
11:35 PM 66.2 °F 23.0 °F 19% 29.88 in 10.0 mi SE 4.6 mph - N/A   Clear
11:55 PM 66.2 °F 23.0 °F 19% 29.88 in 10.0 mi Calm Calm - N/A   Clear